Lid_Strength_Index
7 8 9 8 7 8 8 8 9 8 7 9 11 11 9 7 7 7 6 6 6 6 6 6 5 4 3 3 1 1 1 1 1 1 1 1 2 2 2 1 1 1 1 1
7 8 8 8 8 8 8 8 9 8 8 9 10 11 9 8 7 7 7 7 7 7 6 5 4 3 3 2 2 1 0 -0 -0 0 0 0 0 1 1 1 1 1 1 1
8 8 7 8 8 8 9 9 9 9 9 9 10 11 11 8 7 6 6 6 6 7 6 5 5 4 4 3 2 1 1 0 -0 -1 -0 -0 -0 -0 0 0 0 0 0 1
8 7 8 8 8 8 9 8 8 9 9 10 9 11 10 10 9 7 6 6 7 6 6 6 5 4 3 3 3 2 1 1 1 -0 0 0 1 2 2 1 0 -0 0 1
8 8 8 8 8 8 8 7 8 9 9 10 11 11 9 10 11 9 7 7 7 6 6 5 5 4 3 3 3 3 3 2 2 2 2 3 3 3 2 2 0 -0 -1 -1
7 6 7 7 7 7 7 8 9 9 9 11 11 11 10 10 9 9 7 7 5 5 4 4 4 4 4 4 4 4 4 3 3 3 2 2 2 2 2 2 2 1 1 1
7 7 6 6 7 7 7 8 11 12 12 12 10 11 9 8 7 8 7 7 5 4 4 5 5 4 3 4 5 6 5 4 3 2 2 1 1 1 1 1 1 1 2 2
10 11 8 7 7 8 8 8 11 15 14 12 11 12 9 8 7 6 5 6 5 5 5 4 4 4 4 4 4 6 4 3 2 2 1 1 0 1 1 1 1 1 1 1
10 10 7 7 7 7 9 9 9 11 12 12 11 10 8 8 8 7 6 5 6 5 5 5 3 2 2 2 2 3 3 3 3 2 1 1 1 0 1 0 -0 1 -0 1
8 11 8 8 7 7 8 8 11 10 15 15 13 12 10 10 9 8 7 6 5 4 4 3 3 2 2 1 2 3 3 3 2 2 1 1 0 0 0 -0 0 0 -0 -0
7 9 9 8 8 9 9 9 10 9 10 13 14 12 8 8 8 8 7 5 5 4 4 3 3 2 2 1 2 2 3 2 2 1 1 1 0 0 0 0 0 0 -0 -0
8 9 11 10 8 7 8 9 9 11 13 12 12 11 7 6 6 6 6 5 4 4 3 3 3 2 2 2 2 2 3 3 2 2 1 1 0 0 0 0 0 0 0 0
7 9 12 11 9 8 9 9 9 9 10 13 14 12 6 6 6 6 6 5 5 4 4 3 3 3 2 2 2 2 2 3 2 2 2 1 0 0 0 -0 -0 -0 0 -0
6 9 10 12 11 9 11 10 9 10 12 11 11 10 8 7 7 5 5 5 4 4 4 3 3 3 2 2 2 2 2 2 1 2 2 2 2 1 0 -0 -0 -0 -0 -0
7 10 10 10 10 9 10 10 9 10 10 12 10 10 8 7 7 6 6 5 5 5 4 4 4 3 2 2 2 2 2 2 1 2 3 2 2 1 -0 -0 -0 -0 -0 -1
8 11 10 11 9 9 10 9 9 9 9 10 9 10 6 6 6 6 6 5 5 5 4 4 3 3 3 2 2 1 1 1 0 1 2 2 2 3 2 1 2 2 2 1
8 10 11 12 11 11 13 10 9 9 8 9 11 8 6 7 7 6 6 5 5 4 4 4 3 3 2 2 2 1 1 0 1 2 1 2 2 3 3 3 3 2 1 0
9 10 11 13 12 17 10 8 7 8 8 8 8 8 7 6 5 5 4 4 4 4 4 3 3 2 2 1 1 1 1 2 1 1 2 3 3 3 2 3 3 2 3 2
7 9 13 15 14 12 10 9 9 9 9 7 7 7 6 6 5 6 4 4 4 4 3 3 2 2 2 2 2 2 3 3 3 4 4 3 3 3 3 2 1 1 1 2
8 8 11 13 16 17 10 7 6 6 12 6 7 7 7 6 9 7 4 3 3 3 2 2 3 3 2 3 2 3 4 3 4 3 3 2 2 2 1 1 1 1 0 1
11 11 13 13 15 12 8 6 6 12 10 6 6 6 6 7 5 4 3 3 3 3 3 3 2 3 3 3 3 4 3 3 2 2 2 2 2 1 1 1 0 0 0 0
12 13 13 13 15 16 6 7 9 7 6 5 5 5 5 4 4 4 4 4 3 3 3 3 4 5 5 4 3 3 3 2 2 2 2 2 1 2 2 1 0 0 0 2
12 9 11 11 11 7 5 6 5 4 5 5 5 4 4 4 4 4 4 4 3 4 4 5 5 5 4 3 2 2 2 1 0 1 1 1 1 1 1 1 1 1 2 2
8 7 9 9 8 7 6 5 4 4 4 4 3 4 4 4 4 4 4 4 4 4 4 4 4 4 3 2 2 2 1 0 0 1 1 1 1 2 1 1 1 2 2 2
7 7 9 9 7 7 6 5 4 5 4 4 4 4 4 4 4 4 4 4 4 4 4 4 4 3 2 1 1 1 0 -0 0 2 1 1 2 1 1 1 1 1 1 2
7 8 9 10 6 6 6 4 4 5 5 4 4 4 3 3 4 3 4 4 4 4 4 3 2 2 2 2 2 2 1 0 0 0 1 2 1 1 2 2 2 5 6 6